ARG1538 SABE-SACO

Flight info

Callsign ARG1538
Flight time N/A
Altitude 32000
Route ATOVO4B ATOVO UW5 ASISA ASISA1Q
Aircraft B738/M-SDE2E3FGHIRWXY/LB1

Departure

Time N/A
Airport Aeroparque Jorge Newbery (SABE)

Arrival

Time 2026-05-03 21:10
Airport Ingeniero Aeronáutico Ambrosio L.V. Taravella International Airport (SACO)
Time Latitude Longitude Altitude Speed Heading
2026-05-03 20:15 -33.86689 -59.35118 26387 ft 423 kts 303°
2026-05-03 20:15 -33.84854 -59.37899 26707 ft 425 kts 303°
2026-05-03 20:15 -33.83021 -59.40676 27024 ft 428 kts 303°
2026-05-03 20:15 -33.81158 -59.43494 27366 ft 430 kts 303°
2026-05-03 20:16 -33.79307 -59.46293 27703 ft 432 kts 303°
2026-05-03 20:16 -33.77427 -59.49134 28082 ft 432 kts 303°
2026-05-03 20:16 -33.75554 -59.51958 28579 ft 430 kts 302°
2026-05-03 20:16 -33.73712 -59.54735 29102 ft 428 kts 302°
2026-05-03 20:17 -33.71855 -59.57534 29574 ft 426 kts 302°
2026-05-03 20:17 -33.70011 -59.60315 29981 ft 426 kts 302°
2026-05-03 20:17 -33.68155 -59.63109 30342 ft 426 kts 302°
2026-05-03 20:17 -33.66307 -59.65888 30725 ft 425 kts 302°
2026-05-03 20:18 -33.64462 -59.68656 31143 ft 423 kts 302°
2026-05-03 20:18 -33.62648 -59.71376 31536 ft 422 kts 302°
2026-05-03 20:18 -33.60805 -59.74139 31876 ft 421 kts 301°
2026-05-03 20:18 -33.58963 -59.76899 32103 ft 423 kts 301°
2026-05-03 20:19 -33.57133 -59.79647 32089 ft 427 kts 301°
2026-05-03 20:19 -33.53433 -59.85181 32067 ft 422 kts 302°
2026-05-03 20:20 -33.49770 -59.90649 32086 ft 421 kts 301°
2026-05-03 20:20 -33.46103 -59.96123 32090 ft 422 kts 301°
2026-05-03 20:21 -33.42432 -60.01593 32091 ft 422 kts 301°
2026-05-03 20:21 -33.38732 -60.07096 32084 ft 423 kts 302°
2026-05-03 20:22 -33.35064 -60.12544 32076 ft 423 kts 301°
2026-05-03 20:22 -33.31373 -60.18016 32070 ft 422 kts 302°
2026-05-03 20:23 -33.27689 -60.23472 32079 ft 422 kts 302°
2026-05-03 20:23 -33.23987 -60.28946 32077 ft 422 kts 302°
2026-05-03 20:24 -33.20314 -60.34367 32053 ft 421 kts 302°
2026-05-03 20:24 -33.16618 -60.39817 32075 ft 421 kts 302°
2026-05-03 20:25 -33.12955 -60.45209 32077 ft 420 kts 302°
2026-05-03 20:25 -33.09277 -60.50616 32083 ft 420 kts 302°
2026-05-03 20:26 -33.05599 -60.56014 32062 ft 420 kts 302°
2026-05-03 20:26 -33.01916 -60.61412 32051 ft 420 kts 302°
2026-05-03 20:27 -32.98219 -60.66823 32051 ft 420 kts 302°
2026-05-03 20:27 -32.94521 -60.72230 32052 ft 420 kts 302°
2026-05-03 20:28 -32.90837 -60.77621 32043 ft 420 kts 300°
2026-05-03 20:28 -32.87766 -60.83388 32049 ft 412 kts 293°
2026-05-03 20:29 -32.84907 -60.89319 32049 ft 412 kts 293°
2026-05-03 20:29 -32.82041 -60.95213 32063 ft 413 kts 293°
2026-05-03 20:30 -32.79136 -61.01114 32060 ft 413 kts 293°
2026-05-03 20:30 -32.76244 -61.06954 32055 ft 413 kts 294°
2026-05-03 20:31 -32.73334 -61.12817 32056 ft 412 kts 294°
2026-05-03 20:31 -32.70410 -61.18698 32045 ft 412 kts 294°
2026-05-03 20:32 -32.67497 -61.24551 32050 ft 411 kts 294°
2026-05-03 20:32 -32.64591 -61.30379 32052 ft 411 kts 294°
2026-05-03 20:33 -32.61669 -61.36230 32046 ft 411 kts 294°
2026-05-03 20:33 -32.60219 -61.39131 32048 ft 411 kts 294°
2026-05-03 20:34 -32.58754 -61.42059 32050 ft 411 kts 294°
2026-05-03 20:34 -32.52921 -61.53693 32040 ft 411 kts 294°
2026-05-03 20:35 -32.50008 -61.59492 32045 ft 411 kts 294°
2026-05-03 20:35 -32.47071 -61.65329 32043 ft 411 kts 294°
2026-05-03 20:36 -32.44149 -61.71125 32042 ft 411 kts 294°
2026-05-03 20:36 -32.41202 -61.76963 32041 ft 412 kts 294°
2026-05-03 20:37 -32.38267 -61.82770 32032 ft 412 kts 294°
2026-05-03 20:37 -32.35333 -61.88565 32042 ft 412 kts 294°
2026-05-03 20:38 -32.32379 -61.94384 32039 ft 412 kts 294°
2026-05-03 20:38 -32.29426 -62.00183 32036 ft 413 kts 294°
2026-05-03 20:39 -32.26450 -62.06017 32032 ft 413 kts 294°
2026-05-03 20:39 -32.23505 -62.11786 32034 ft 412 kts 294°
2026-05-03 20:40 -32.20532 -62.17601 32024 ft 412 kts 294°
2026-05-03 20:40 -32.17613 -62.23290 31856 ft 398 kts 294°
2026-05-03 20:40 -32.16201 -62.26038 31594 ft 389 kts 294°
2026-05-03 20:41 -32.15267 -62.27855 31301 ft 387 kts 294°
2026-05-03 20:41 -32.13418 -62.31459 30800 ft 382 kts 294°
2026-05-03 20:41 -32.12507 -62.33234 30547 ft 379 kts 294°
2026-05-03 20:41 -32.11136 -62.35905 30162 ft 376 kts 294°
2026-05-03 20:42 -32.09799 -62.38509 29726 ft 374 kts 294°
2026-05-03 20:42 -32.08448 -62.41137 29289 ft 372 kts 295°
2026-05-03 20:42 -32.07099 -62.43760 28870 ft 371 kts 295°
2026-05-03 20:42 -32.05767 -62.46346 28459 ft 368 kts 295°
2026-05-03 20:43 -32.04449 -62.48902 28067 ft 366 kts 295°
2026-05-03 20:43 -32.03124 -62.51471 27665 ft 365 kts 295°
2026-05-03 20:43 -32.01798 -62.54038 27263 ft 364 kts 295°
2026-05-03 20:43 -32.00495 -62.56560 26873 ft 362 kts 295°
2026-05-03 20:44 -31.99196 -62.59073 26485 ft 361 kts 295°
2026-05-03 20:44 -31.97894 -62.61590 26095 ft 359 kts 295°
2026-05-03 20:44 -31.96583 -62.64123 25701 ft 358 kts 295°
2026-05-03 20:44 -31.95295 -62.66609 25311 ft 357 kts 295°
2026-05-03 20:45 -31.94012 -62.69083 24927 ft 356 kts 295°
2026-05-03 20:45 -31.92718 -62.71580 24541 ft 355 kts 295°
2026-05-03 20:45 -31.91444 -62.74034 24154 ft 354 kts 295°
2026-05-03 20:45 -31.90149 -62.76527 23753 ft 354 kts 296°
2026-05-03 20:46 -31.88874 -62.78980 23319 ft 353 kts 296°
2026-05-03 20:46 -31.87605 -62.81419 22895 ft 351 kts 296°
2026-05-03 20:46 -31.86316 -62.83896 22499 ft 349 kts 296°
2026-05-03 20:46 -31.85061 -62.86304 22119 ft 348 kts 296°
2026-05-03 20:47 -31.83797 -62.88729 21728 ft 346 kts 296°
2026-05-03 20:47 -31.82539 -62.91142 21344 ft 344 kts 296°
2026-05-03 20:47 -31.81298 -62.93520 20973 ft 343 kts 296°
2026-05-03 20:47 -31.80041 -62.95928 20594 ft 342 kts 297°
2026-05-03 20:48 -31.78806 -62.98294 20233 ft 342 kts 297°
2026-05-03 20:48 -31.77557 -63.00685 19856 ft 343 kts 297°
2026-05-03 20:48 -31.76301 -63.03088 19476 ft 344 kts 297°
2026-05-03 20:48 -31.75062 -63.05456 19095 ft 343 kts 297°
2026-05-03 20:49 -31.73820 -63.07828 18712 ft 341 kts 297°
2026-05-03 20:49 -31.72567 -63.10219 18309 ft 340 kts 297°
2026-05-03 20:49 -31.71345 -63.12549 17898 ft 338 kts 298°
2026-05-03 20:49 -31.70114 -63.14897 17495 ft 335 kts 298°
2026-05-03 20:50 -31.68890 -63.17228 17114 ft 332 kts 298°
2026-05-03 20:50 -31.67660 -63.19485 16732 ft 332 kts 304°
2026-05-03 20:50 -31.65902 -63.21279 16417 ft 336 kts 328°
2026-05-03 20:50 -31.63701 -63.22146 16159 ft 339 kts 347°
2026-05-03 20:51 -31.61349 -63.22464 15813 ft 338 kts 351°
2026-05-03 20:51 -31.59018 -63.22682 15433 ft 338 kts 352°
2026-05-03 20:51 -31.56656 -63.22885 15066 ft 337 kts 352°
2026-05-03 20:51 -31.54350 -63.23081 14757 ft 334 kts 352°
2026-05-03 20:52 -31.52020 -63.23283 14421 ft 332 kts 352°
2026-05-03 20:52 -31.49745 -63.23490 14078 ft 331 kts 352°
2026-05-03 20:52 -31.47442 -63.23700 13836 ft 327 kts 352°
2026-05-03 20:52 -31.45189 -63.23906 13588 ft 326 kts 352°
2026-05-03 20:53 -31.42947 -63.24108 13335 ft 325 kts 352°
2026-05-03 20:53 -31.40674 -63.24316 13088 ft 325 kts 352°
2026-05-03 20:53 -31.38490 -63.24797 12802 ft 319 kts 334°
2026-05-03 20:53 -31.36670 -63.26199 12565 ft 311 kts 311°
2026-05-03 20:54 -31.35538 -63.28286 12330 ft 306 kts 289°
2026-05-03 20:54 -31.34416 -63.33069 11867 ft 303 kts 281°
2026-05-03 20:54 -31.34264 -63.35490 11612 ft 302 kts 266°
2026-05-03 20:55 -31.34487 -63.37953 11383 ft 301 kts 263°
2026-05-03 20:55 -31.34765 -63.40366 11144 ft 302 kts 262°
2026-05-03 20:55 -31.35060 -63.42812 10905 ft 302 kts 262°
2026-05-03 20:55 -31.35356 -63.45231 10674 ft 302 kts 262°
2026-05-03 20:56 -31.35648 -63.47635 10432 ft 299 kts 262°
2026-05-03 20:56 -31.36014 -63.50026 10192 ft 294 kts 255°
2026-05-03 20:56 -31.36599 -63.52266 10117 ft 284 kts 253°
2026-05-03 20:56 -31.37206 -63.54420 10047 ft 273 kts 252°
2026-05-03 20:57 -31.37816 -63.56528 9793 ft 271 kts 252°
2026-05-03 20:57 -31.38418 -63.58589 9542 ft 270 kts 252°
2026-05-03 20:57 -31.39033 -63.60662 9299 ft 267 kts 253°
2026-05-03 20:57 -31.39643 -63.62659 9203 ft 258 kts 252°
2026-05-03 20:58 -31.40241 -63.64603 9145 ft 248 kts 252°
2026-05-03 20:58 -31.40827 -63.66474 9041 ft 240 kts 253°
2026-05-03 20:58 -31.41400 -63.68239 9020 ft 227 kts 252°
2026-05-03 20:58 -31.41944 -63.69924 8880 ft 216 kts 253°
2026-05-03 20:59 -31.42485 -63.71534 8659 ft 210 kts 253°
2026-05-03 20:59 -31.43031 -63.73099 8307 ft 210 kts 253°
2026-05-03 20:59 -31.43603 -63.74687 7957 ft 211 kts 253°
2026-05-03 20:59 -31.44178 -63.76256 7681 ft 208 kts 252°
2026-05-03 21:00 -31.44487 -63.77862 7271 ft 203 kts 278°
2026-05-03 21:00 -31.44402 -63.78951 7098 ft 200 kts 279°
2026-05-03 21:00 -31.44313 -63.81098 6794 ft 198 kts 278°
2026-05-03 21:00 -31.44261 -63.82716 6566 ft 199 kts 278°
2026-05-03 21:01 -31.44209 -63.84347 6326 ft 200 kts 278°
2026-05-03 21:01 -31.44156 -63.85983 6080 ft 200 kts 278°
2026-05-03 21:01 -31.44102 -63.87600 5838 ft 200 kts 278°
2026-05-03 21:01 -31.44048 -63.89218 5706 ft 195 kts 279°
2026-05-03 21:02 -31.43996 -63.90771 5564 ft 190 kts 279°
2026-05-03 21:02 -31.43943 -63.92311 5446 ft 190 kts 279°
2026-05-03 21:02 -31.43888 -63.93859 5331 ft 192 kts 279°
2026-05-03 21:02 -31.43831 -63.95440 5218 ft 194 kts 279°
2026-05-03 21:03 -31.43777 -63.97004 5098 ft 194 kts 279°
2026-05-03 21:03 -31.43721 -63.98592 5023 ft 195 kts 279°
2026-05-03 21:03 -31.43664 -64.00171 5007 ft 196 kts 279°
2026-05-03 21:03 -31.43610 -64.01736 4993 ft 185 kts 280°
2026-05-03 21:04 -31.43562 -64.03178 4991 ft 173 kts 281°
2026-05-03 21:04 -31.43511 -64.04594 4993 ft 173 kts 282°
2026-05-03 21:04 -31.43489 -64.05990 4992 ft 174 kts 277°
2026-05-03 21:04 -31.43490 -64.07418 4999 ft 175 kts 276°
2026-05-03 21:05 -31.43492 -64.08824 4888 ft 172 kts 276°
2026-05-03 21:05 -31.43493 -64.10217 4686 ft 169 kts 276°
2026-05-03 21:05 -31.43494 -64.11572 4488 ft 166 kts 277°
2026-05-03 21:05 -31.43493 -64.12931 4311 ft 166 kts 277°
2026-05-03 21:06 -31.43492 -64.14276 4131 ft 167 kts 278°
2026-05-03 21:06 -31.43481 -64.15634 3991 ft 162 kts 282°
2026-05-03 21:06 -31.43003 -64.16713 3765 ft 146 kts 329°
2026-05-03 21:06 -31.42149 -64.17324 3606 ft 147 kts 333°
2026-05-03 21:07 -31.41273 -64.17948 3401 ft 145 kts 333°
2026-05-03 21:07 -31.40414 -64.18556 3206 ft 146 kts 334°
2026-05-03 21:07 -31.39822 -64.18972 3073 ft 147 kts 334°
2026-05-03 21:08 -31.37631 -64.20506 2552 ft 152 kts 335°
2026-05-03 21:08 -31.37325 -64.20690 2487 ft 149 kts 346°
2026-05-03 21:08 -31.34664 -64.20790 2109 ft 144 kts
2026-05-03 21:09 -31.33658 -64.20800 1908 ft 149 kts
2026-05-03 21:09 -31.32605 -64.20821 1688 ft 150 kts
2026-05-03 21:09 -31.31615 -64.20832 1618 ft 131 kts
2026-05-03 21:09 -31.30899 -64.20836 1616 ft 72 kts 359°
2026-05-03 21:10 -31.30655 -64.20853 1612 ft 13 kts 338°
2026-05-03 21:10 -31.30644 -64.20830 1620 ft 4 kts 161°
2026-05-03 21:10 -31.30712 -64.20838 1617 ft 16 kts 183°
2026-05-03 21:10 -31.30865 -64.20837 1617 ft 27 kts 179°
2026-05-03 21:11 -31.31080 -64.20834 1617 ft 33 kts 179°
2026-05-03 21:11 -31.31300 -64.20831 1615 ft 30 kts 179°
2026-05-03 21:11 -31.31447 -64.20852 1617 ft 19 kts 221°
2026-05-03 21:11 -31.31466 -64.20962 1612 ft 9 kts 269°
2026-05-03 21:12 -31.31466 -64.20967 1612 ft 0 kts 269°
2026-05-03 21:12 -31.31466 -64.20977 1612 ft 0 kts 269°
2026-05-03 21:15 -31.31466 -64.20978 1612 ft 1 kts 269°
2026-05-03 21:15 -31.31468 -64.21008 1612 ft 6 kts 263°
2026-05-03 21:15 -31.31472 -64.21068 1617 ft 7 kts 274°
2026-05-03 21:15 -31.31475 -64.21127 1619 ft 7 kts 259°
2026-05-03 21:16 -31.31483 -64.21169 1614 ft 2 kts 257°
2026-05-03 21:16 -31.31486 -64.21181 1613 ft 1 kts 257°